Chariton, IA

7:34 AM CDT on August 27, 2016 (GMT -0500)
Chariton Municipal

Weather History for KCNC - August, 2014

Change the Weather History Date:

Tuesday, August 19, 2014

  Actual Average Record
Temperature  
Mean Temperature 76 °F -  
Max Temperature 84 °F 85 °F 101 °F (1983)
Min Temperature 69 °F 62 °F 49 °F (1992)
Cooling Degree Days 12    
Growing Degree Days 26 (Base 50)    
Moisture  
Dew Point 69 °F    
Average Humidity 81    
Maximum Humidity 100    
Minimum Humidity 55    
Precipitation  
Precipitation 0.00 in - - ()
Sea Level Pressure  
Sea Level Pressure 29.80 in    
Wind  
Wind Speed 6 mph (West)    
Max Wind Speed 12 mph    
Max Gust Speed 17 mph    
Visibility 8 miles    
Events      
Averages and records for this station are not official NWS values.
T = Trace of Precipitation, MM = Missing Value Source: NWS Daily Summary

Daily Weather History Graph

Daily Weather History Graph

Search for Another Location

Airport or City:

Trip Planner

Search our weather history database for the weather conditions in past years. The results will help you decide how hot, cold, wet, or windy it might be!

Date:

Astronomy

Aug. 19, 2014 Rise Set
Actual Time 6:27 AM CDT 8:06 PM CDT
Civil Twilight 5:57 AM CDT 8:35 PM CDT
Nautical Twilight 5:22 AM CDT 9:10 PM CDT
Astronomical Twilight 4:44 AM CDT 9:47 PM CDT
Moon 1:18 AM CDT (8/19) 4:04 PM CDT (8/19)
Length of Visible Light 14h 37m
Length of Day
13h 38m
Waning Crescent, 29% of the Moon is Illuminated
Aug 19
Waning Crescent
Aug 25
New
Sep 2
First Quarter
Sep 8
Full
Sep 15
Last Quarter

Hourly Weather History & Observations

Time (CDT) Temp. Heat Index Dew Point Humidity Pressure Visibility Wind Dir Wind Speed Gust Speed Precip Events Conditions
12:15 AM 73.4 °F - 71.6 °F 94% 29.79 in 8.0 mi SW 9.2 mph - N/A   Clear
12:35 AM 73.4 °F - 71.6 °F 94% 29.78 in 9.0 mi SW 4.6 mph - N/A   Clear
12:55 AM 73.4 °F - 71.6 °F 94% 29.77 in 8.0 mi SW 4.6 mph - N/A   Clear
1:15 AM 73.4 °F - 71.6 °F 94% 29.77 in 7.0 mi SW 5.8 mph - N/A   Clear
1:35 AM 73.4 °F - 71.6 °F 94% 29.78 in 7.0 mi SW 5.8 mph - N/A   Mostly Cloudy
1:55 AM 71.6 °F - 71.6 °F 100% 29.77 in 7.0 mi WSW 4.6 mph - N/A   Mostly Cloudy
2:15 AM 71.6 °F - 71.6 °F 100% 29.77 in 6.0 mi SW 5.8 mph - N/A   Mostly Cloudy
2:35 AM 73.4 °F - 71.6 °F 94% 29.77 in 7.0 mi SW 8.1 mph - N/A   Mostly Cloudy
2:55 AM 71.6 °F - 71.6 °F 100% 29.77 in 5.0 mi SW 5.8 mph - N/A   Mostly Cloudy
3:15 AM 71.6 °F - 69.8 °F 94% 29.77 in 5.0 mi SW 6.9 mph - N/A   Partly Cloudy
3:35 AM 71.6 °F - 69.8 °F 94% 29.76 in 4.0 mi WSW 5.8 mph - N/A   Clear
3:55 AM 71.6 °F - 69.8 °F 94% 29.76 in 4.0 mi SSW 5.8 mph - N/A   Partly Cloudy
4:15 AM 71.6 °F - 69.8 °F 94% 29.75 in 4.0 mi Calm Calm - N/A   Mostly Cloudy
4:35 AM 71.6 °F - 69.8 °F 94% 29.76 in 4.0 mi SW 4.6 mph - N/A   Overcast
4:55 AM 71.6 °F - 69.8 °F 94% 29.76 in 4.0 mi SW 4.6 mph - N/A   Mostly Cloudy
5:15 AM 69.8 °F - 69.8 °F 100% 29.75 in 3.0 mi SW 4.6 mph - N/A   Mostly Cloudy
5:35 AM 69.8 °F - 69.8 °F 100% 29.74 in 4.0 mi WSW 3.5 mph - N/A   Scattered Clouds
5:55 AM 69.8 °F - 69.8 °F 100% 29.75 in 4.0 mi SW 5.8 mph - N/A   Partly Cloudy
6:15 AM 69.8 °F - 69.8 °F 100% 29.77 in 5.0 mi SSW 5.8 mph - N/A   Mostly Cloudy
6:35 AM 71.6 °F - 69.8 °F 94% 29.78 in 4.0 mi WSW 6.9 mph - N/A   Overcast
6:55 AM 69.8 °F - 69.8 °F 100% 29.78 in 4.0 mi West 8.1 mph - N/A   Mostly Cloudy
7:15 AM 71.6 °F - 69.8 °F 94% 29.80 in 6.0 mi South 8.1 mph - N/A   Partly Cloudy
7:35 AM 71.6 °F - 69.8 °F 94% 29.80 in 6.0 mi South 6.9 mph - N/A   Mostly Cloudy
7:55 AM 73.4 °F - 71.6 °F 94% 29.79 in 9.0 mi WSW 5.8 mph - N/A   Scattered Clouds
8:10 AM 73.4 °F - 71.6 °F 94% 29.80 in 9.0 mi WSW 6.9 mph - N/A   Partly Cloudy
8:35 AM 75.2 °F - 71.6 °F 89% 29.80 in 10.0 mi West 5.8 mph - N/A   Clear
8:55 AM 75.2 °F - 71.6 °F 89% 29.80 in 10.0 mi West 4.6 mph - N/A   Clear
9:15 AM 75.2 °F - 71.6 °F 89% 29.80 in 10.0 mi West 8.1 mph - N/A   Clear
9:35 AM 75.2 °F - 71.6 °F 89% 29.80 in 10.0 mi WNW 9.2 mph - N/A   Clear
9:55 AM 77.0 °F - 69.8 °F 78% 29.80 in 10.0 mi WNW 6.9 mph - N/A   Clear
10:15 AM 77.0 °F - 71.6 °F 83% 29.80 in 10.0 mi NW 6.9 mph - N/A   Clear
10:35 AM 78.8 °F - 71.6 °F 78% 29.80 in 10.0 mi Variable 6.9 mph - N/A   Clear
10:55 AM 78.8 °F - 69.8 °F 74% 29.80 in 10.0 mi NW 8.1 mph - N/A   Clear
11:15 AM 80.6 °F 83.9 °F 69.8 °F 70% 29.80 in 10.0 mi NNW 9.2 mph - N/A   Clear
11:35 AM 80.6 °F 83.9 °F 69.8 °F 70% 29.81 in 10.0 mi NNW 11.5 mph - N/A   Clear
11:55 AM 80.6 °F 83.9 °F 69.8 °F 70% 29.82 in 10.0 mi NW 9.2 mph - N/A   Clear
12:15 PM 80.6 °F 83.2 °F 68.0 °F 65% 29.82 in 10.0 mi NNW 10.4 mph - N/A   Clear
12:35 PM 80.6 °F 83.2 °F 68.0 °F 65% 29.82 in 10.0 mi Variable 5.8 mph 12.7 mph N/A   Partly Cloudy
12:55 PM 82.4 °F 85.4 °F 68.0 °F 62% 29.82 in 10.0 mi NW 9.2 mph 15.0 mph N/A   Partly Cloudy
1:15 PM 82.4 °F 84.6 °F 66.2 °F 58% 29.82 in 10.0 mi WNW 10.4 mph - N/A   Partly Cloudy
1:35 PM 82.4 °F 84.6 °F 66.2 °F 58% 29.82 in 10.0 mi WNW 11.5 mph - N/A   Clear
1:55 PM 82.4 °F 84.6 °F 66.2 °F 58% 29.83 in 10.0 mi NW 10.4 mph 17.3 mph N/A   Clear
2:15 PM 82.4 °F 84.6 °F 66.2 °F 58% 29.82 in 10.0 mi WNW 8.1 mph - N/A   Clear
2:35 PM 82.4 °F 84.6 °F 66.2 °F 58% 29.82 in 10.0 mi West 9.2 mph - N/A   Scattered Clouds
2:55 PM 82.4 °F 85.4 °F 68.0 °F 62% 29.82 in 10.0 mi West 10.4 mph - N/A   Partly Cloudy
3:15 PM 82.4 °F 84.6 °F 66.2 °F 58% 29.81 in 10.0 mi West 10.4 mph - N/A   Clear
3:35 PM 82.4 °F 84.6 °F 66.2 °F 58% 29.81 in 9.0 mi NW 6.9 mph - N/A   Clear
4:15 PM 84.2 °F 86.6 °F 66.2 °F 55% 29.80 in 10.0 mi WNW 6.9 mph - N/A   Clear
4:35 PM 82.4 °F 84.6 °F 66.2 °F 58% 29.80 in 10.0 mi WNW 6.9 mph - N/A   Clear
4:55 PM 82.4 °F 84.6 °F 66.2 °F 58% 29.80 in 10.0 mi NW 6.9 mph - N/A   Clear
5:15 PM 82.4 °F 84.6 °F 66.2 °F 58% 29.80 in 10.0 mi NNW 4.6 mph - N/A   Clear
5:35 PM 82.4 °F 84.6 °F 66.2 °F 58% 29.79 in 10.0 mi NW 4.6 mph - N/A   Clear
5:55 PM 82.4 °F 85.4 °F 68.0 °F 62% 29.80 in 10.0 mi WNW 4.6 mph - N/A   Clear
6:15 PM 82.4 °F 85.4 °F 68.0 °F 62% 29.80 in 10.0 mi NW 5.8 mph - N/A   Clear
6:35 PM 82.4 °F 85.4 °F 68.0 °F 62% 29.80 in 10.0 mi Calm Calm - N/A   Clear
6:55 PM 80.6 °F 83.9 °F 69.8 °F 70% 29.80 in 10.0 mi Calm Calm - N/A   Clear
7:15 PM 80.6 °F 83.9 °F 69.8 °F 70% 29.81 in 10.0 mi Calm Calm - N/A   Clear
7:35 PM 80.6 °F 83.9 °F 69.8 °F 70% 29.81 in 10.0 mi Calm Calm - N/A   Clear
7:55 PM 78.8 °F - 69.8 °F 74% 29.81 in 10.0 mi Calm Calm - N/A   Clear
8:15 PM 77.0 °F - 69.8 °F 78% 29.81 in 10.0 mi Calm Calm - N/A   Clear
8:35 PM 75.2 °F - 69.8 °F 83% 29.81 in 10.0 mi Calm Calm - N/A   Clear
8:55 PM 75.2 °F - 69.8 °F 83% 29.82 in 10.0 mi Calm Calm - N/A   Clear
9:15 PM 73.4 °F - 69.8 °F 88% 29.82 in 10.0 mi Calm Calm - N/A   Clear
9:35 PM 73.4 °F - 68.0 °F 83% 29.83 in - Calm Calm - N/A   Clear
9:55 PM 73.4 °F - 68.0 °F 83% 29.83 in 10.0 mi Calm Calm - N/A   Clear
10:15 PM 71.6 °F - 68.0 °F 88% 29.83 in 10.0 mi SE 3.5 mph - N/A   Clear
10:35 PM 69.8 °F - 68.0 °F 94% 29.83 in 10.0 mi SSE 3.5 mph - N/A   Clear
10:55 PM 71.6 °F - 69.8 °F 94% 29.83 in 10.0 mi SE 3.5 mph - N/A   Clear
11:15 PM 69.8 °F - 69.8 °F 100% 29.83 in 9.0 mi East 4.6 mph - N/A   Clear
11:35 PM 69.8 °F - 68.0 °F 94% 29.83 in 3.0 mi ESE 5.8 mph - N/A   Clear
11:55 PM 69.8 °F - 68.0 °F 94% 29.84 in 8.0 mi SSE 4.6 mph - N/A   Clear